Time,TemperatureF,DewpointF,PressureIn,WindDirection,WindDirectionDegrees,WindSpeedMPH,WindSpeedGustMPH,Humidity,HourlyPrecipIn,Conditions,Clouds,dailyrainin,SoftwareType,DateUTC
2013-04-23 00:01:00,66.9,62.6,30.04,ESE,103,2.0,9.0,86,0.00,,,0.40,meteohub,2013-04-23 04:01:00,
2013-04-23 00:02:00,66.9,62.6,30.04,ESE,103,3.0,9.0,86,0.00,,,0.40,meteohub,2013-04-23 04:02:00,
2013-04-23 00:03:00,66.9,62.6,30.04,ESE,103,3.0,9.0,86,0.00,,,0.40,meteohub,2013-04-23 04:03:00,
2013-04-23 00:04:00,66.9,62.6,30.04,ESE,103,3.0,9.0,86,0.00,,,0.40,meteohub,2013-04-23 04:04:00,
2013-04-23 00:09:00,66.9,62.6,30.04,East,91,2.0,9.0,86,0.00,,,0.00,meteohub,2013-04-23 04:09:00,
2013-04-23 00:14:00,66.9,62.6,30.04,ENE,74,2.0,9.0,86,0.00,,,0.00,meteohub,2013-04-23 04:14:00,
2013-04-23 00:19:00,66.7,62.4,30.04,East,98,3.0,8.0,86,0.00,,,0.00,meteohub,2013-04-23 04:19:00,
2013-04-23 00:24:00,66.7,62.8,30.04,ENE,69,2.0,8.0,87,0.00,,,0.00,meteohub,2013-04-23 04:24:00,
2013-04-23 00:29:00,66.7,62.4,30.04,East,101,5.0,8.0,86,0.00,,,0.00,meteohub,2013-04-23 04:29:00,
2013-04-23 00:34:00,66.6,62.6,30.04,ENE,71,4.0,7.0,87,0.00,,,0.00,meteohub,2013-04-23 04:34:00,
2013-04-23 00:39:00,66.6,62.6,30.04,East,83,5.0,7.0,87,0.00,,,0.00,meteohub,2013-04-23 04:39:00,
2013-04-23 00:44:00,66.6,62.6,30.04,ENE,78,2.0,8.0,87,0.00,,,0.00,meteohub,2013-04-23 04:44:00,
2013-04-23 00:49:00,66.6,62.6,30.04,East,94,1.0,8.0,87,0.00,,,0.00,meteohub,2013-04-23 04:49:00,
2013-04-23 00:54:00,66.6,62.6,30.04,East,94,5.0,8.0,87,0.00,,,0.00,meteohub,2013-04-23 04:54:00,
2013-04-23 00:59:00,66.6,62.6,30.03,ESE,108,3.0,7.0,87,0.00,,,0.00,meteohub,2013-04-23 04:59:00,
2013-04-23 01:04:00,66.6,62.6,30.03,East,82,5.0,8.0,87,0.00,,,0.00,meteohub,2013-04-23 05:04:00,
2013-04-23 01:09:00,66.6,62.6,30.03,ESE,105,5.0,9.0,87,0.00,,,0.00,meteohub,2013-04-23 05:09:00,
2013-04-23 01:14:00,66.6,62.6,30.03,East,90,1.0,9.0,87,0.00,,,0.00,meteohub,2013-04-23 05:14:00,
2013-04-23 01:20:00,66.6,62.6,30.03,East,96,5.0,9.0,87,0.00,,,0.00,meteohub,2013-04-23 05:20:00,
2013-04-23 01:25:00,66.6,62.6,30.03,East,82,5.0,8.0,87,0.00,,,0.00,meteohub,2013-04-23 05:25:00,
2013-04-23 01:30:00,66.6,62.6,30.03,ENE,64,4.0,7.0,87,0.00,,,0.00,meteohub,2013-04-23 05:30:00,
2013-04-23 01:35:00,66.6,62.6,30.03,ENE,73,3.0,7.0,87,0.00,,,0.00,meteohub,2013-04-23 05:35:00,
2013-04-23 01:40:00,66.6,62.6,30.03,ENE,74,1.0,9.0,87,0.00,,,0.00,meteohub,2013-04-23 05:40:00,
2013-04-23 01:45:00,66.6,63.0,30.03,ENE,74,1.0,9.0,88,0.00,,,0.00,meteohub,2013-04-23 05:45:00,
2013-04-23 01:50:00,66.6,62.6,30.03,ENE,74,2.0,9.0,87,0.00,,,0.00,meteohub,2013-04-23 05:50:00,
2013-04-23 01:55:00,66.7,62.8,30.03,ENE,74,2.0,5.0,87,0.00,,,0.00,meteohub,2013-04-23 05:55:00,
2013-04-23 02:00:00,66.7,62.8,30.03,ENE,74,5.0,5.0,87,0.00,,,0.00,meteohub,2013-04-23 06:00:00,
2013-04-23 02:05:00,66.6,62.6,30.02,ENE,74,1.0,5.0,87,0.00,,,0.00,meteohub,2013-04-23 06:05:00,
2013-04-23 02:10:00,66.6,63.0,30.03,East,94,2.0,7.0,88,0.00,,,0.00,meteohub,2013-04-23 06:10:00,
2013-04-23 02:15:00,66.6,63.0,30.02,East,94,2.0,7.0,88,0.00,,,0.00,meteohub,2013-04-23 06:15:00,
2013-04-23 02:20:00,66.6,63.0,30.02,East,80,0.0,8.0,88,0.00,,,0.00,meteohub,2013-04-23 06:20:00,
2013-04-23 02:25:00,66.6,63.0,30.02,ESE,109,3.0,8.0,88,0.00,,,0.00,meteohub,2013-04-23 06:25:00,
2013-04-23 02:30:00,66.6,63.0,30.02,NNW,342,4.0,8.0,88,0.00,,,0.00,meteohub,2013-04-23 06:30:00,
2013-04-23 02:35:00,66.4,62.8,30.02,North,5,3.0,5.0,88,0.00,,,0.00,meteohub,2013-04-23 06:35:00,
2013-04-23 02:40:00,66.4,62.8,30.01,NE,38,2.0,5.0,88,0.00,,,0.00,meteohub,2013-04-23 06:40:00,
2013-04-23 02:46:00,66.0,62.4,30.01,East,90,3.0,7.0,88,0.00,,,0.00,meteohub,2013-04-23 06:46:00,
2013-04-23 02:51:00,66.0,62.6,30.01,North,9,2.0,7.0,89,0.00,,,0.00,meteohub,2013-04-23 06:51:00,
2013-04-23 02:56:00,66.2,62.8,30.01,NE,54,4.0,5.0,89,0.00,,,0.00,meteohub,2013-04-23 06:56:00,
2013-04-23 03:01:00,66.0,62.6,30.01,NE,54,2.0,6.0,89,0.00,,,0.00,meteohub,2013-04-23 07:01:00,
2013-04-23 03:06:00,66.0,62.6,30.00,NE,55,3.0,6.0,89,0.00,,,0.00,meteohub,2013-04-23 07:06:00,
2013-04-23 03:11:00,66.0,62.6,30.00,ENE,75,2.0,6.0,89,0.00,,,0.00,meteohub,2013-04-23 07:11:00,
2013-04-23 03:16:00,66.0,62.6,30.00,ENE,74,4.0,5.0,89,0.00,,,0.00,meteohub,2013-04-23 07:16:00,
2013-04-23 03:21:00,66.0,62.6,30.00,ENE,74,3.0,5.0,89,0.00,,,0.00,meteohub,2013-04-23 07:21:00,
2013-04-23 03:26:00,66.2,62.8,30.00,ENE,74,4.0,5.0,89,0.00,,,0.00,meteohub,2013-04-23 07:26:00,
2013-04-23 03:31:00,66.2,62.8,30.00,ENE,74,2.0,5.0,89,0.00,,,0.00,meteohub,2013-04-23 07:31:00,
2013-04-23 03:36:00,66.2,62.8,30.00,ENE,74,1.0,7.0,89,0.00,,,0.00,meteohub,2013-04-23 07:36:00,
2013-04-23 03:41:00,66.2,62.8,29.99,ENE,62,3.0,7.0,89,0.00,,,0.00,meteohub,2013-04-23 07:41:00,
2013-04-23 03:46:00,66.0,62.6,29.99,ENE,64,3.0,7.0,89,0.00,,,0.00,meteohub,2013-04-23 07:46:00,
2013-04-23 03:51:00,66.0,62.6,29.99,ENE,64,1.0,7.0,89,0.00,,,0.00,meteohub,2013-04-23 07:51:00,
2013-04-23 03:56:00,65.8,62.4,30.00,East,80,3.0,5.0,89,0.00,,,0.00,meteohub,2013-04-23 07:56:00,
2013-04-23 04:01:00,65.8,62.4,29.99,East,89,3.0,8.0,89,0.00,,,0.00,meteohub,2013-04-23 08:01:00,
2013-04-23 04:06:00,65.8,62.4,29.99,East,88,3.0,8.0,89,0.00,,,0.00,meteohub,2013-04-23 08:06:00,
2013-04-23 04:11:00,65.8,62.4,29.99,East,88,2.0,8.0,89,0.00,,,0.00,meteohub,2013-04-23 08:11:00,
2013-04-23 04:16:00,65.8,62.4,29.99,ENE,59,4.0,8.0,89,0.00,,,0.00,meteohub,2013-04-23 08:16:00,
2013-04-23 04:22:00,65.8,62.4,29.99,East,88,2.0,7.0,89,0.00,,,0.00,meteohub,2013-04-23 08:22:00,
2013-04-23 04:27:00,65.8,62.4,29.99,ESE,119,2.0,7.0,89,0.00,,,0.00,meteohub,2013-04-23 08:27:00,
2013-04-23 04:32:00,65.8,62.8,29.99,ESE,119,2.0,7.0,90,0.00,,,0.00,meteohub,2013-04-23 08:32:00,
2013-04-23 04:37:00,65.8,62.8,29.99,ESE,119,1.0,6.0,90,0.00,,,0.00,meteohub,2013-04-23 08:37:00,
2013-04-23 04:42:00,65.8,62.8,29.99,East,86,2.0,5.0,90,0.00,,,0.00,meteohub,2013-04-23 08:42:00,
2013-04-23 04:47:00,65.8,62.8,29.99,East,80,3.0,7.0,90,0.00,,,0.00,meteohub,2013-04-23 08:47:00,
2013-04-23 04:52:00,65.8,62.8,29.99,ENE,61,1.0,7.0,90,0.00,,,0.00,meteohub,2013-04-23 08:52:00,
2013-04-23 04:57:00,65.8,62.8,29.99,East,88,3.0,7.0,90,0.00,,,0.00,meteohub,2013-04-23 08:57:00,
2013-04-23 05:02:00,65.8,62.8,29.99,East,82,3.0,6.0,90,0.00,,,0.00,meteohub,2013-04-23 09:02:00,
2013-04-23 05:07:00,65.8,62.8,29.99,East,82,2.0,6.0,90,0.00,,,0.00,meteohub,2013-04-23 09:07:00,
2013-04-23 05:12:00,65.8,62.8,29.99,ENE,61,1.0,6.0,90,0.00,,,0.00,meteohub,2013-04-23 09:12:00,
2013-04-23 05:17:00,65.7,62.6,29.99,ENE,73,3.0,7.0,90,0.00,,,0.00,meteohub,2013-04-23 09:17:00,
2013-04-23 05:22:00,65.8,62.8,29.99,ENE,73,3.0,7.0,90,0.00,,,0.00,meteohub,2013-04-23 09:22:00,
2013-04-23 05:27:00,65.8,62.8,30.00,ENE,73,3.0,5.0,90,0.00,,,0.00,meteohub,2013-04-23 09:27:00,
2013-04-23 05:32:00,65.8,62.8,30.00,ENE,71,2.0,5.0,90,0.00,,,0.00,meteohub,2013-04-23 09:32:00,
2013-04-23 05:37:00,65.7,62.6,30.00,ENE,71,2.0,7.0,90,0.00,,,0.00,meteohub,2013-04-23 09:37:00,
2013-04-23 05:42:00,65.7,62.6,30.00,ENE,71,2.0,7.0,90,0.00,,,0.00,meteohub,2013-04-23 09:42:00,
2013-04-23 05:47:00,65.7,62.6,29.99,NE,51,2.0,4.0,90,0.00,,,0.00,meteohub,2013-04-23 09:47:00,
2013-04-23 05:52:00,65.7,62.6,30.00,NE,44,3.0,4.0,90,0.00,,,0.00,meteohub,2013-04-23 09:52:00,
2013-04-23 05:57:00,65.7,62.6,30.00,NE,49,2.0,4.0,90,0.00,,,0.00,meteohub,2013-04-23 09:57:00,
2013-04-23 06:02:00,65.7,62.6,30.00,NE,49,2.0,5.0,90,0.00,,,0.00,meteohub,2013-04-23 10:02:00,
2013-04-23 06:07:00,65.7,62.6,30.00,NE,49,3.0,5.0,90,0.00,,,0.00,meteohub,2013-04-23 10:07:00,
2013-04-23 06:12:00,65.5,62.4,30.00,NE,49,3.0,4.0,90,0.00,,,0.00,meteohub,2013-04-23 10:12:00,
2013-04-23 06:17:00,65.5,62.4,30.00,NE,49,1.0,4.0,90,0.00,,,0.00,meteohub,2013-04-23 10:17:00,
2013-04-23 06:22:00,65.5,62.4,30.00,NE,48,4.0,4.0,90,0.00,,,0.00,meteohub,2013-04-23 10:22:00,
2013-04-23 06:27:00,65.5,62.4,30.00,ESE,107,3.0,7.0,90,0.00,,,0.00,meteohub,2013-04-23 10:27:00,
2013-04-23 06:32:00,65.5,62.4,30.00,ENE,66,0.0,7.0,90,0.00,,,0.00,meteohub,2013-04-23 10:32:00,
2013-04-23 06:37:00,65.5,62.4,30.01,NE,49,2.0,7.0,90,0.00,,,0.00,meteohub,2013-04-23 10:37:00,
2013-04-23 06:42:00,65.5,62.4,30.01,NE,55,2.0,5.0,90,0.00,,,0.00,meteohub,2013-04-23 10:42:00,
2013-04-23 06:47:00,65.3,62.2,30.01,East,84,1.0,6.0,90,0.00,,,0.00,meteohub,2013-04-23 10:47:00,
2013-04-23 06:52:00,65.5,62.4,30.01,NE,37,3.0,6.0,90,0.00,,,0.00,meteohub,2013-04-23 10:52:00,
2013-04-23 06:57:00,65.5,62.4,30.02,ENE,64,2.0,6.0,90,0.00,,,0.00,meteohub,2013-04-23 10:57:00,
2013-04-23 07:02:00,65.5,62.4,30.02,ENE,66,2.0,6.0,90,0.00,,,0.00,meteohub,2013-04-23 11:02:00,
2013-04-23 07:07:00,65.5,62.4,30.02,NE,54,4.0,5.0,90,0.00,,,0.00,meteohub,2013-04-23 11:07:00,
2013-04-23 07:12:00,65.3,62.2,30.02,NE,38,2.0,5.0,90,0.00,,,0.00,meteohub,2013-04-23 11:12:00,
2013-04-23 07:17:00,65.3,62.2,30.02,NE,38,1.0,5.0,90,0.00,,,0.00,meteohub,2013-04-23 11:17:00,
2013-04-23 07:22:00,65.3,62.2,30.03,NE,38,3.0,5.0,90,0.00,,,0.00,meteohub,2013-04-23 11:22:00,
2013-04-23 07:27:00,65.3,62.2,30.03,NE,38,1.0,5.0,90,0.00,,,0.00,meteohub,2013-04-23 11:27:00,
2013-04-23 07:32:00,65.3,62.2,30.03,NE,38,2.0,5.0,90,0.00,,,0.00,meteohub,2013-04-23 11:32:00,
2013-04-23 07:37:00,65.5,62.4,30.03,NE,38,2.0,5.0,90,0.00,,,0.00,meteohub,2013-04-23 11:37:00,
2013-04-23 07:42:00,65.5,62.4,30.03,ENE,62,3.0,4.0,90,0.00,,,0.00,meteohub,2013-04-23 11:42:00,
2013-04-23 07:47:00,65.5,62.4,30.03,ENE,69,3.0,7.0,90,0.00,,,0.00,meteohub,2013-04-23 11:47:00,
2013-04-23 07:52:00,65.7,62.6,30.04,East,86,2.0,7.0,90,0.00,,,0.00,meteohub,2013-04-23 11:52:00,
2013-04-23 07:57:00,65.8,62.4,30.03,ENE,71,2.0,7.0,89,0.00,,,0.00,meteohub,2013-04-23 11:57:00,
2013-04-23 08:02:00,65.8,62.4,30.04,NW,321,2.0,5.0,89,0.00,,,0.00,meteohub,2013-04-23 12:02:00,
2013-04-23 08:07:00,65.8,62.4,30.04,NNE,20,2.0,6.0,89,0.00,,,0.00,meteohub,2013-04-23 12:07:00,
2013-04-23 08:12:00,66.0,62.6,30.04,NNE,22,2.0,6.0,89,0.00,,,0.00,meteohub,2013-04-23 12:12:00,
2013-04-23 08:17:00,66.2,62.8,30.04,NNW,342,2.0,6.0,89,0.00,,,0.00,meteohub,2013-04-23 12:17:00,
2013-04-23 08:22:00,66.6,63.0,30.04,North,355,2.0,5.0,88,0.00,,,0.00,meteohub,2013-04-23 12:22:00,
2013-04-23 08:27:00,66.7,62.8,30.04,NE,48,2.0,5.0,87,0.00,,,0.00,meteohub,2013-04-23 12:27:00,
2013-04-23 08:32:00,66.9,63.0,30.04,NE,54,4.0,4.0,87,0.00,,,0.00,meteohub,2013-04-23 12:32:00,
2013-04-23 08:37:00,67.5,63.1,30.04,ENE,57,3.0,5.0,86,0.00,,,0.00,meteohub,2013-04-23 12:37:00,
2013-04-23 08:42:00,67.6,63.3,30.04,ENE,57,2.0,5.0,86,0.00,,,0.00,meteohub,2013-04-23 12:42:00,
2013-04-23 08:47:00,68.5,63.9,30.04,ENE,57,2.0,4.0,85,0.00,,,0.00,meteohub,2013-04-23 12:47:00,
2013-04-23 08:52:00,69.4,64.0,30.04,ENE,57,1.0,4.0,83,0.00,,,0.00,meteohub,2013-04-23 12:52:00,
2013-04-23 08:57:00,70.3,64.2,30.05,ENE,57,3.0,4.0,81,0.00,,,0.00,meteohub,2013-04-23 12:57:00,
2013-04-23 09:02:00,70.9,64.4,30.05,ENE,61,2.0,4.0,80,0.00,,,0.00,meteohub,2013-04-23 13:02:00,
2013-04-23 09:07:00,71.6,64.4,30.05,ENE,63,2.0,7.0,78,0.00,,,0.00,meteohub,2013-04-23 13:07:00,
2013-04-23 09:12:00,72.3,64.8,30.05,ENE,62,2.0,7.0,77,0.00,,,0.00,meteohub,2013-04-23 13:12:00,
2013-04-23 09:17:00,73.0,64.6,30.05,ENE,62,3.0,4.0,75,0.00,,,0.00,meteohub,2013-04-23 13:17:00,
2013-04-23 09:22:00,73.2,64.4,30.06,ENE,61,3.0,5.0,74,0.00,,,0.00,meteohub,2013-04-23 13:22:00,
2013-04-23 09:27:00,73.8,64.9,30.06,ENE,63,0.0,5.0,74,0.00,,,0.00,meteohub,2013-04-23 13:27:00,
2013-04-23 09:32:00,74.5,64.9,30.06,ENE,59,1.0,5.0,72,0.00,,,0.00,meteohub,2013-04-23 13:32:00,
2013-04-23 09:37:00,74.7,65.1,30.06,SE,137,2.0,6.0,72,0.00,,,0.00,meteohub,2013-04-23 13:37:00,
2013-04-23 09:42:00,75.6,65.1,30.06,ENE,74,4.0,6.0,70,0.00,,,0.00,meteohub,2013-04-23 13:42:00,
2013-04-23 09:47:00,75.6,64.8,30.06,ENE,78,7.0,7.0,69,0.00,,,0.00,meteohub,2013-04-23 13:47:00,
2013-04-23 09:52:00,75.0,64.6,30.06,ENE,71,2.0,7.0,70,0.00,,,0.00,meteohub,2013-04-23 13:52:00,
2013-04-23 09:57:00,74.8,64.4,30.06,ENE,73,4.0,7.0,70,0.00,,,0.00,meteohub,2013-04-23 13:57:00,
2013-04-23 10:02:00,74.8,64.4,30.06,East,88,2.0,8.0,70,0.00,,,0.00,meteohub,2013-04-23 14:02:00,
2013-04-23 10:07:00,75.0,64.9,30.06,ESE,118,3.0,8.0,71,0.00,,,0.00,meteohub,2013-04-23 14:07:00,
2013-04-23 10:12:00,75.7,64.8,30.06,NNE,14,3.0,8.0,69,0.00,,,0.00,meteohub,2013-04-23 14:12:00,
2013-04-23 10:17:00,76.5,65.1,30.06,ENE,69,0.0,5.0,68,0.00,,,0.00,meteohub,2013-04-23 14:17:00,
2013-04-23 10:22:00,76.8,64.9,30.07,East,80,2.0,5.0,67,0.00,,,0.00,meteohub,2013-04-23 14:22:00,
2013-04-23 10:27:00,77.5,66.2,30.07,NE,55,2.0,5.0,68,0.00,,,0.00,meteohub,2013-04-23 14:27:00,
2013-04-23 10:32:00,78.4,65.3,30.07,ESE,105,4.0,6.0,64,0.00,,,0.00,meteohub,2013-04-23 14:32:00,
2013-04-23 10:37:00,78.4,65.3,30.07,ESE,103,3.0,6.0,64,0.00,,,0.00,meteohub,2013-04-23 14:37:00,
2013-04-23 10:42:00,78.3,65.5,30.07,ESE,113,4.0,6.0,65,0.00,,,0.00,meteohub,2013-04-23 14:42:00,
2013-04-23 10:47:00,78.6,65.8,30.07,ESE,117,4.0,7.0,65,0.00,,,0.00,meteohub,2013-04-23 14:47:00,
2013-04-23 10:52:00,78.8,65.7,30.07,East,88,3.0,7.0,64,0.00,,,0.00,meteohub,2013-04-23 14:52:00,
2013-04-23 10:57:00,79.2,65.5,30.07,East,80,2.0,7.0,63,0.00,,,0.00,meteohub,2013-04-23 14:57:00,
2013-04-23 11:02:00,79.5,65.8,30.07,East,100,2.0,7.0,63,0.00,,,0.00,meteohub,2013-04-23 15:02:00,
2013-04-23 11:07:00,80.4,66.2,30.07,East,100,2.0,6.0,62,0.00,,,0.00,meteohub,2013-04-23 15:07:00,
2013-04-23 11:12:00,81.1,66.0,30.07,East,101,2.0,6.0,60,0.00,,,0.00,meteohub,2013-04-23 15:12:00,
2013-04-23 11:17:00,81.3,66.6,30.07,ENE,64,2.0,6.0,61,0.00,,,0.00,meteohub,2013-04-23 15:17:00,
2013-04-23 11:22:00,81.7,66.0,30.07,SE,145,2.0,6.0,59,0.00,,,0.00,meteohub,2013-04-23 15:22:00,
2013-04-23 11:27:00,81.3,66.0,30.07,East,99,1.0,6.0,60,0.00,,,0.00,meteohub,2013-04-23 15:27:00,
2013-04-23 11:32:00,81.1,66.0,30.07,East,85,6.0,6.0,60,0.00,,,0.00,meteohub,2013-04-23 15:32:00,
2013-04-23 11:37:00,80.8,66.0,30.07,East,82,3.0,7.0,61,0.00,,,0.00,meteohub,2013-04-23 15:37:00,
2013-04-23 11:42:00,80.6,65.8,30.07,East,86,3.0,7.0,61,0.00,,,0.00,meteohub,2013-04-23 15:42:00,
2013-04-23 11:47:00,81.0,66.2,30.07,East,90,3.0,7.0,61,0.00,,,0.00,meteohub,2013-04-23 15:47:00,
2013-04-23 11:52:00,80.8,66.0,30.06,ESE,105,1.0,7.0,61,0.00,,,0.00,meteohub,2013-04-23 15:52:00,
2013-04-23 11:57:00,81.0,66.2,30.06,ESE,105,3.0,7.0,61,0.00,,,0.00,meteohub,2013-04-23 15:57:00,
2013-04-23 12:02:00,81.1,66.4,30.06,ESE,105,3.0,7.0,61,0.00,,,0.00,meteohub,2013-04-23 16:02:00,
2013-04-23 12:07:00,81.3,66.0,30.06,ESE,106,3.0,8.0,60,0.00,,,0.00,meteohub,2013-04-23 16:07:00,
2013-04-23 12:12:00,81.5,66.2,30.06,ESE,106,3.0,8.0,60,0.00,,,0.00,meteohub,2013-04-23 16:12:00,
2013-04-23 12:17:00,81.9,66.6,30.06,ESE,104,2.0,8.0,60,0.00,,,0.00,meteohub,2013-04-23 16:17:00,
2013-04-23 12:22:00,82.2,66.4,30.06,ESE,103,1.0,7.0,59,0.00,,,0.00,meteohub,2013-04-23 16:22:00,
2013-04-23 12:27:00,82.9,66.6,30.05,ESE,103,4.0,7.0,58,0.00,,,0.00,meteohub,2013-04-23 16:27:00,
2013-04-23 12:32:00,83.1,66.7,30.05,ENE,74,3.0,7.0,58,0.00,,,0.00,meteohub,2013-04-23 16:32:00,
2013-04-23 12:37:00,83.1,66.7,30.05,ESE,118,4.0,7.0,58,0.00,,,0.00,meteohub,2013-04-23 16:37:00,
2013-04-23 12:42:00,82.9,66.6,30.05,ESE,108,0.0,7.0,58,0.00,,,0.00,meteohub,2013-04-23 16:42:00,
2013-04-23 12:47:00,83.1,66.4,30.05,East,87,3.0,7.0,57,0.00,,,0.00,meteohub,2013-04-23 16:47:00,
2013-04-23 12:52:00,83.1,66.4,30.04,East,98,0.0,7.0,57,0.00,,,0.00,meteohub,2013-04-23 16:52:00,
2013-04-23 12:57:00,82.0,66.4,30.04,SE,141,3.0,5.0,59,0.00,,,0.00,meteohub,2013-04-23 16:57:00,
2013-04-23 13:02:00,81.9,66.2,30.04,East,96,2.0,5.0,59,0.00,,,0.00,meteohub,2013-04-23 17:02:00,
2013-04-23 13:07:00,82.4,66.2,30.04,East,95,3.0,6.0,58,0.00,,,0.00,meteohub,2013-04-23 17:07:00,
2013-04-23 13:12:00,82.6,66.4,30.04,East,101,3.0,7.0,58,0.00,,,0.00,meteohub,2013-04-23 17:12:00,
2013-04-23 13:17:00,82.9,66.2,30.03,ESE,109,3.0,7.0,57,0.00,,,0.00,meteohub,2013-04-23 17:17:00,
2013-04-23 13:22:00,83.1,66.4,30.03,ENE,74,0.0,7.0,57,0.00,,,0.00,meteohub,2013-04-23 17:22:00,
2013-04-23 13:27:00,83.8,66.9,30.03,East,82,3.0,5.0,57,0.00,,,0.00,meteohub,2013-04-23 17:27:00,
2013-04-23 13:32:00,83.7,66.4,30.03,ESE,109,2.0,6.0,56,0.00,,,0.00,meteohub,2013-04-23 17:32:00,
2013-04-23 13:37:00,83.8,66.0,30.03,ESE,109,2.0,6.0,55,0.00,,,0.00,meteohub,2013-04-23 17:37:00,
2013-04-23 13:42:00,83.3,66.0,30.03,ESE,109,2.0,6.0,56,0.00,,,0.00,meteohub,2013-04-23 17:42:00,
2013-04-23 13:47:00,82.8,66.0,30.03,ESE,107,0.0,4.0,57,0.00,,,0.00,meteohub,2013-04-23 17:47:00,
2013-04-23 13:52:00,82.8,66.0,30.02,ESE,107,2.0,4.0,57,0.00,,,0.00,meteohub,2013-04-23 17:52:00,
2013-04-23 13:57:00,82.9,66.6,30.02,NNW,330,3.0,4.0,58,0.00,,,0.00,meteohub,2013-04-23 17:57:00,
2013-04-23 14:02:00,83.1,65.8,30.02,NNE,22,2.0,5.0,56,0.00,,,0.00,meteohub,2013-04-23 18:02:00,
2013-04-23 14:07:00,83.1,65.8,30.02,ENE,59,2.0,5.0,56,0.00,,,0.00,meteohub,2013-04-23 18:07:00,
2013-04-23 14:12:00,82.9,65.7,30.02,ENE,59,0.0,5.0,56,0.00,,,0.00,meteohub,2013-04-23 18:12:00,
2013-04-23 14:17:00,82.8,66.0,30.02,East,83,1.0,5.0,57,0.00,,,0.00,meteohub,2013-04-23 18:17:00,
2013-04-23 14:22:00,82.8,65.5,30.02,ESE,115,1.0,7.0,56,0.00,,,0.00,meteohub,2013-04-23 18:22:00,
2013-04-23 14:27:00,81.9,66.6,30.02,North,0,5.0,7.0,60,0.00,,,0.00,meteohub,2013-04-23 18:27:00,
2013-04-23 14:32:00,82.2,66.9,30.02,WNW,286,4.0,7.0,60,0.00,,,0.00,meteohub,2013-04-23 18:32:00,
2013-04-23 14:37:00,82.0,66.7,30.02,WNW,295,2.0,7.0,60,0.00,,,0.00,meteohub,2013-04-23 18:37:00,
2013-04-23 14:42:00,81.7,66.9,30.02,WNW,303,4.0,6.0,61,0.00,,,0.00,meteohub,2013-04-23 18:42:00,
2013-04-23 14:47:00,81.0,66.7,30.02,NNW,338,2.0,5.0,62,0.00,,,0.00,meteohub,2013-04-23 18:47:00,
2013-04-23 14:52:00,80.4,67.1,30.02,WNW,290,3.0,5.0,64,0.00,,,0.00,meteohub,2013-04-23 18:52:00,
2013-04-23 14:57:00,79.5,66.7,30.01,WNW,298,3.0,6.0,65,0.00,,,0.00,meteohub,2013-04-23 18:57:00,
2013-04-23 15:02:00,79.9,67.1,30.01,WNW,293,5.0,7.0,65,0.00,,,0.00,meteohub,2013-04-23 19:02:00,
2013-04-23 15:07:00,81.3,67.5,30.01,WNW,288,3.0,9.0,63,0.00,,,0.00,meteohub,2013-04-23 19:07:00,
2013-04-23 15:12:00,83.1,67.8,30.01,WNW,297,5.0,9.0,60,0.00,,,0.00,meteohub,2013-04-23 19:12:00,
2013-04-23 15:17:00,84.7,67.8,30.01,WNW,296,5.0,9.0,57,0.00,,,0.00,meteohub,2013-04-23 19:17:00,
2013-04-23 15:22:00,84.4,67.5,30.01,NW,318,5.0,8.0,57,0.00,,,0.00,meteohub,2013-04-23 19:22:00,
2013-04-23 15:27:00,84.4,68.0,30.01,NNW,328,4.0,7.0,58,0.00,,,0.00,meteohub,2013-04-23 19:27:00,
2013-04-23 15:32:00,83.7,67.8,30.01,NW,318,4.0,7.0,59,0.00,,,0.00,meteohub,2013-04-23 19:32:00,
2013-04-23 15:37:00,84.0,67.6,30.01,WNW,294,4.0,7.0,58,0.00,,,0.00,meteohub,2013-04-23 19:37:00,
2013-04-23 15:42:00,84.4,67.5,30.01,WNW,301,2.0,7.0,57,0.00,,,0.00,meteohub,2013-04-23 19:42:00,
2013-04-23 15:47:00,85.3,67.8,30.00,WNW,296,4.0,7.0,56,0.00,,,0.00,meteohub,2013-04-23 19:47:00,
2013-04-23 15:52:00,84.9,68.0,30.00,NW,323,9.0,9.0,57,0.00,,,0.00,meteohub,2013-04-23 19:52:00,
2013-04-23 15:57:00,84.0,67.1,30.00,WNW,294,9.0,9.0,57,0.00,,,0.00,meteohub,2013-04-23 19:57:00,
2013-04-23 16:02:00,84.0,67.1,30.00,WNW,292,3.0,9.0,57,0.00,,,0.00,meteohub,2013-04-23 20:02:00,
2013-04-23 16:07:00,84.2,67.8,30.00,West,279,4.0,9.0,58,0.00,,,0.00,meteohub,2013-04-23 20:07:00,
2013-04-23 16:12:00,84.6,68.2,30.00,WNW,296,4.0,9.0,58,0.00,,,0.00,meteohub,2013-04-23 20:12:00,
2013-04-23 16:17:00,84.4,66.9,29.99,WNW,295,5.0,9.0,56,0.00,,,0.00,meteohub,2013-04-23 20:17:00,
2013-04-23 16:22:00,83.7,68.4,29.99,WNW,291,6.0,9.0,60,0.00,,,0.00,meteohub,2013-04-23 20:22:00,
2013-04-23 16:27:00,83.5,67.6,29.99,NW,306,5.0,10.0,59,0.00,,,0.00,meteohub,2013-04-23 20:27:00,
2013-04-23 16:32:00,83.7,67.3,29.99,NW,319,2.0,10.0,58,0.00,,,0.00,meteohub,2013-04-23 20:32:00,
2013-04-23 16:37:00,83.5,67.6,29.99,NW,308,1.0,10.0,59,0.00,,,0.00,meteohub,2013-04-23 20:37:00,
2013-04-23 16:42:00,83.8,67.5,29.99,NNW,331,4.0,8.0,58,0.00,,,0.00,meteohub,2013-04-23 20:42:00,
2013-04-23 16:47:00,83.5,66.2,29.99,NW,304,4.0,8.0,56,0.00,,,0.00,meteohub,2013-04-23 20:47:00,
2013-04-23 16:52:00,82.9,66.2,29.99,NW,323,3.0,10.0,57,0.00,,,0.00,meteohub,2013-04-23 20:52:00,
2013-04-23 16:57:00,82.8,65.5,29.99,NW,313,4.0,10.0,56,0.00,,,0.00,meteohub,2013-04-23 20:57:00,
2013-04-23 17:02:00,83.3,66.6,29.99,NNW,331,6.0,10.0,57,0.00,,,0.00,meteohub,2013-04-23 21:02:00,
2013-04-23 17:08:00,83.1,66.4,29.98,NW,318,3.0,8.0,57,0.00,,,0.00,meteohub,2013-04-23 21:08:00,
2013-04-23 17:13:00,83.1,66.7,29.99,NW,309,3.0,8.0,58,0.00,,,0.00,meteohub,2013-04-23 21:13:00,
2013-04-23 17:18:00,83.1,66.4,29.99,NNW,338,2.0,9.0,57,0.00,,,0.00,meteohub,2013-04-23 21:18:00,
2013-04-23 17:23:00,82.9,67.1,29.99,NW,304,4.0,9.0,59,0.00,,,0.00,meteohub,2013-04-23 21:23:00,
2013-04-23 17:28:00,82.8,67.5,29.99,WNW,294,5.0,7.0,60,0.00,,,0.00,meteohub,2013-04-23 21:28:00,
2013-04-23 17:33:00,82.4,67.1,29.99,NW,311,4.0,8.0,60,0.00,,,0.00,meteohub,2013-04-23 21:33:00,
2013-04-23 17:38:00,81.9,67.6,29.99,NW,307,2.0,8.0,62,0.00,,,0.00,meteohub,2013-04-23 21:38:00,
2013-04-23 17:43:00,82.0,67.6,29.99,WNW,286,6.0,8.0,62,0.00,,,0.00,meteohub,2013-04-23 21:43:00,
2013-04-23 17:48:00,81.7,67.5,29.99,WNW,295,6.0,8.0,62,0.00,,,0.00,meteohub,2013-04-23 21:48:00,
2013-04-23 17:53:00,81.3,67.5,29.99,WNW,296,4.0,9.0,63,0.00,,,0.00,meteohub,2013-04-23 21:53:00,
2013-04-23 17:58:00,81.1,67.3,29.99,NNW,338,7.0,9.0,63,0.00,,,0.00,meteohub,2013-04-23 21:58:00,
2013-04-23 18:03:00,80.8,67.5,29.99,WNW,298,6.0,9.0,64,0.00,,,0.00,meteohub,2013-04-23 22:03:00,
2013-04-23 18:08:00,80.4,67.1,29.99,NW,305,6.0,8.0,64,0.00,,,0.00,meteohub,2013-04-23 22:08:00,
2013-04-23 18:13:00,80.2,67.8,29.99,WNW,294,5.0,9.0,66,0.00,,,0.00,meteohub,2013-04-23 22:13:00,
2013-04-23 18:18:00,80.1,68.2,29.99,NW,311,1.0,9.0,67,0.00,,,0.00,meteohub,2013-04-23 22:18:00,
2013-04-23 18:23:00,79.9,67.5,29.99,WNW,294,6.0,9.0,66,0.00,,,0.00,meteohub,2013-04-23 22:23:00,
2013-04-23 18:28:00,79.2,67.3,29.99,WNW,282,5.0,9.0,67,0.00,,,0.00,meteohub,2013-04-23 22:28:00,
2013-04-23 18:33:00,78.8,66.9,29.99,NW,318,4.0,10.0,67,0.00,,,0.00,meteohub,2013-04-23 22:33:00,
2013-04-23 18:38:00,78.4,67.5,29.99,NNW,338,5.0,10.0,69,0.00,,,0.00,meteohub,2013-04-23 22:38:00,
2013-04-23 18:44:00,78.3,67.6,29.99,NW,318,6.0,10.0,70,0.00,,,0.00,meteohub,2013-04-23 22:44:00,
2013-04-23 18:49:00,78.3,67.6,29.99,NW,326,5.0,10.0,70,0.00,,,0.00,meteohub,2013-04-23 22:49:00,
2013-04-23 18:54:00,78.1,67.8,30.00,WNW,298,5.0,10.0,71,0.00,,,0.00,meteohub,2013-04-23 22:54:00,
2013-04-23 18:59:00,77.7,67.6,30.00,WNW,289,5.0,8.0,71,0.00,,,0.00,meteohub,2013-04-23 22:59:00,
2013-04-23 19:04:00,77.5,67.5,30.00,WNW,293,6.0,9.0,71,0.00,,,0.00,meteohub,2013-04-23 23:04:00,
2013-04-23 19:09:00,77.2,67.5,30.00,NW,317,5.0,10.0,72,0.00,,,0.00,meteohub,2013-04-23 23:09:00,
2013-04-23 19:14:00,76.8,67.5,30.00,NW,312,6.0,10.0,73,0.00,,,0.00,meteohub,2013-04-23 23:14:00,
2013-04-23 19:19:00,76.5,67.6,30.00,WNW,298,4.0,10.0,74,0.00,,,0.00,meteohub,2013-04-23 23:19:00,
2013-04-23 19:24:00,76.5,68.0,30.00,NW,311,3.0,9.0,75,0.00,,,0.00,meteohub,2013-04-23 23:24:00,
2013-04-23 19:29:00,76.5,67.6,30.00,NW,321,6.0,9.0,74,0.00,,,0.00,meteohub,2013-04-23 23:29:00,
2013-04-23 19:34:00,76.3,67.5,30.00,NW,321,5.0,8.0,74,0.00,,,0.00,meteohub,2013-04-23 23:34:00,
2013-04-23 19:39:00,76.1,67.3,30.00,NW,319,2.0,7.0,74,0.00,,,0.00,meteohub,2013-04-23 23:39:00,
2013-04-23 19:45:00,75.7,66.9,30.00,NW,319,2.0,7.0,74,0.00,,,0.00,meteohub,2013-04-23 23:45:00,
2013-04-23 19:50:00,75.6,67.1,30.00,NW,309,3.0,5.0,75,0.00,,,0.00,meteohub,2013-04-23 23:50:00,
2013-04-23 19:55:00,75.6,67.1,30.00,NW,309,2.0,6.0,75,0.00,,,0.00,meteohub,2013-04-23 23:55:00,
2013-04-23 20:00:00,75.6,67.1,30.00,NW,309,0.0,6.0,75,0.00,,,0.00,meteohub,2013-04-24 00:00:00,
2013-04-23 20:05:00,75.4,66.9,30.00,NW,309,0.0,5.0,75,0.00,,,0.00,meteohub,2013-04-24 00:05:00,
2013-04-23 20:10:00,75.0,66.9,30.00,NW,309,0.0,4.0,76,0.00,,,0.00,meteohub,2013-04-24 00:10:00,
2013-04-23 20:15:00,74.8,66.7,30.00,NW,309,0.0,3.0,76,0.00,,,0.00,meteohub,2013-04-24 00:15:00,
2013-04-23 20:20:00,74.7,66.6,30.00,NW,309,0.0,1.0,76,0.00,,,0.00,meteohub,2013-04-24 00:20:00,
2013-04-23 20:25:00,74.7,65.8,30.00,NW,309,2.0,3.0,74,0.00,,,0.00,meteohub,2013-04-24 00:25:00,
2013-04-23 20:30:00,74.8,63.1,30.01,ENE,69,4.0,4.0,67,0.00,,,0.00,meteohub,2013-04-24 00:30:00,
2013-04-23 20:35:00,75.6,62.6,30.01,ENE,69,3.0,5.0,64,0.00,,,0.00,meteohub,2013-04-24 00:35:00,
2013-04-23 20:40:00,75.9,61.5,30.01,ENE,69,0.0,5.0,61,0.00,,,0.00,meteohub,2013-04-24 00:40:00,
2013-04-23 20:45:00,76.5,61.0,30.01,ENE,67,1.0,4.0,59,0.00,,,0.00,meteohub,2013-04-24 00:45:00,
2013-04-23 20:50:00,76.6,60.8,30.01,East,99,3.0,4.0,58,0.00,,,0.00,meteohub,2013-04-24 00:50:00,
2013-04-23 20:55:00,76.6,60.8,30.01,ENE,67,3.0,7.0,58,0.00,,,0.00,meteohub,2013-04-24 00:55:00,
2013-04-23 21:00:00,76.6,60.3,30.01,ENE,76,2.0,7.0,57,0.00,,,0.00,meteohub,2013-04-24 01:00:00,
2013-04-23 21:05:00,76.6,60.3,30.02,ENE,76,2.0,7.0,57,0.00,,,0.00,meteohub,2013-04-24 01:05:00,
2013-04-23 21:10:00,76.5,60.1,30.02,East,93,0.0,6.0,57,0.00,,,0.00,meteohub,2013-04-24 01:10:00,
2013-04-23 21:16:00,76.3,60.4,30.02,East,88,2.0,5.0,58,0.00,,,0.00,meteohub,2013-04-24 01:16:00,
2013-04-23 21:21:00,76.3,59.9,30.02,East,97,5.0,6.0,57,0.00,,,0.00,meteohub,2013-04-24 01:21:00,
2013-04-23 21:26:00,75.9,60.1,30.03,East,98,2.0,6.0,58,0.00,,,0.00,meteohub,2013-04-24 01:26:00,
2013-04-23 21:31:00,75.7,59.9,30.03,ENE,76,4.0,6.0,58,0.00,,,0.00,meteohub,2013-04-24 01:31:00,
2013-04-23 21:36:00,75.6,59.7,30.03,ESE,105,4.0,7.0,58,0.00,,,0.00,meteohub,2013-04-24 01:36:00,
2013-04-23 21:41:00,75.6,60.3,30.03,ESE,103,1.0,7.0,59,0.00,,,0.00,meteohub,2013-04-24 01:41:00,
2013-04-23 21:46:00,75.4,60.4,30.03,East,101,1.0,7.0,60,0.00,,,0.00,meteohub,2013-04-24 01:46:00,
2013-04-23 21:51:00,75.0,60.3,30.04,East,101,2.0,7.0,60,0.00,,,0.00,meteohub,2013-04-24 01:51:00,
2013-04-23 21:56:00,74.8,60.4,30.04,East,101,2.0,5.0,61,0.00,,,0.00,meteohub,2013-04-24 01:56:00,
2013-04-23 22:01:00,74.7,60.3,30.04,ESE,115,7.0,7.0,61,0.00,,,0.00,meteohub,2013-04-24 02:01:00,
2013-04-23 22:06:00,74.7,60.3,30.04,East,79,3.0,10.0,61,0.00,,,0.00,meteohub,2013-04-24 02:06:00,
2013-04-23 22:11:00,74.3,60.4,30.04,ENE,77,5.0,10.0,62,0.00,,,0.00,meteohub,2013-04-24 02:11:00,
2013-04-23 22:17:00,74.1,60.3,30.04,East,92,8.0,10.0,62,0.00,,,0.00,meteohub,2013-04-24 02:17:00,
2013-04-23 22:22:00,73.9,60.6,30.05,NE,56,4.0,8.0,63,0.00,,,0.00,meteohub,2013-04-24 02:22:00,
2013-04-23 22:27:00,73.8,60.4,30.05,East,94,3.0,8.0,63,0.00,,,0.00,meteohub,2013-04-24 02:27:00,
2013-04-23 22:32:00,73.6,60.6,30.05,East,80,3.0,8.0,64,0.00,,,0.00,meteohub,2013-04-24 02:32:00,
2013-04-23 22:38:00,73.2,60.8,30.06,East,84,6.0,8.0,65,0.00,,,0.00,meteohub,2013-04-24 02:38:00,
2013-04-23 22:43:00,73.0,61.0,30.06,East,88,2.0,8.0,66,0.00,,,0.00,meteohub,2013-04-24 02:43:00,
2013-04-23 22:48:00,72.9,60.8,30.06,East,80,3.0,8.0,66,0.00,,,0.00,meteohub,2013-04-24 02:48:00,
2013-04-23 22:54:00,72.7,61.2,30.06,East,94,2.0,7.0,67,0.00,,,0.00,meteohub,2013-04-24 02:54:00,
2013-04-23 22:59:00,72.5,61.0,30.06,East,98,2.0,7.0,67,0.00,,,0.00,meteohub,2013-04-24 02:59:00,
2013-04-23 23:04:00,72.3,61.2,30.06,ESE,107,3.0,7.0,68,0.00,,,0.00,meteohub,2013-04-24 03:04:00,
2013-04-23 23:10:00,72.1,61.0,30.06,ESE,103,4.0,7.0,68,0.00,,,0.00,meteohub,2013-04-24 03:10:00,
2013-04-23 23:15:00,72.0,61.2,30.06,East,88,5.0,8.0,69,0.00,,,0.00,meteohub,2013-04-24 03:15:00,
2013-04-23 23:20:00,72.0,60.8,30.06,ENE,69,3.0,8.0,68,0.00,,,0.00,meteohub,2013-04-24 03:20:00,
2013-04-23 23:26:00,71.8,61.0,30.06,East,94,5.0,8.0,69,0.00,,,0.00,meteohub,2013-04-24 03:26:00,
2013-04-23 23:31:00,71.6,60.8,30.06,ESE,103,4.0,8.0,69,0.00,,,0.00,meteohub,2013-04-24 03:31:00,
2013-04-23 23:36:00,71.4,61.2,30.06,ESE,117,3.0,7.0,70,0.00,,,0.00,meteohub,2013-04-24 03:36:00,
2013-04-23 23:42:00,71.2,61.0,30.06,ESE,108,2.0,7.0,70,0.00,,,0.00,meteohub,2013-04-24 03:42:00,
2013-04-23 23:47:00,71.1,61.2,30.06,East,87,3.0,8.0,71,0.00,,,0.00,meteohub,2013-04-24 03:47:00,
2013-04-23 23:52:00,70.9,61.0,30.06,ESE,103,2.0,8.0,71,0.00,,,0.00,meteohub,2013-04-24 03:52:00,
2013-04-23 23:57:00,70.7,61.2,30.06,East,86,5.0,7.0,72,0.00,,,0.00,meteohub,2013-04-24 03:57:00,